Regional Weather Roundup
Issued by NWS Charleston, WV

Home | Current Version | Previous Version | Text Only | Print | Product List | Glossary Off
Versions: 1 2 3 4 5 6 7 8 9 10 11 12 13 14 15 16 17 18 19 20 21 22 23 24 25 26 27 28 29 30 31 32 33 34 35 36 37 38 39 40 41 42 43 44 45 46 47 48 49 50

000
ASUS41 KRLX 081110
RWRRLX
West Virginia Regional Weather Roundup
National Weather Service Charleston WV
600 AM EST MON FEB 08 2016

Note: "fair" indicates few or no clouds below 12,000 feet with no
significant weather and/or obstructions to visibility.

WVZ003-081200-
Northern Panhandle of West Virginia

CITY           SKY/WX    TMP DP  RH WIND       PRES   REMARKS
WHEELING         N/A     38  22  52 S5        29.67S
$$

WVZ009-081200-
Northwest West Virginia

CITY           SKY/WX    TMP DP  RH WIND       PRES   REMARKS
PARKERSBURG    MOCLDY    36  23  59 SE5       29.70F
$$

WVZ006-081200-
Western West Virginia

CITY           SKY/WX    TMP DP  RH WIND       PRES   REMARKS
HUNTINGTON     CLOUDY    41  22  46 S8        29.68S
$$

WVZ015-081200-
West Central West Virginia

CITY           SKY/WX    TMP DP  RH WIND       PRES   REMARKS
CHARLESTON       N/A     31  25  78 CALM      29.69F
$$

WVZ022-031-081200-
North Central West Virginia

CITY           SKY/WX    TMP DP  RH WIND       PRES   REMARKS
CLARKSBURG       N/A     27  23  85 CALM      29.70F
MORGANTOWN       N/A     34  21  59 SE6       29.70F
$$

WVZ025-035-042-045-081200-
Southern West Virginia

CITY           SKY/WX    TMP DP  RH WIND       PRES   REMARKS
BECKLEY        CLOUDY    34  19  54 S7        29.70F
LOGAN          CLOUDY    37  21  52 S5        29.69F
BLUEFIELD        N/A     33  18  53 SW3       29.71F
LEWISBURG        N/A     27  23  86 N3        29.74R
$$

WVZ047-081200-
Northern Mountains of West Virginia

CITY           SKY/WX    TMP DP  RH WIND       PRES   REMARKS
ELKINS         MOCLDY    21  17  84 CALM      29.73F
$$

WVZ052-081200-
Eastern Panhandle of West Virginia

CITY           SKY/WX    TMP DP  RH WIND       PRES   REMARKS
MARTINSBURG      N/A     20  17  88 CALM      29.79S FOG
PETERSBURG       N/A     22  21  94 CALM      29.80R
$$



USA.gov is the U.S. government's official web portal to all federal, state and local government web resources and services.